User: anonymous   Login
Location: ???? ?????????
(31.1304°N, 31.7111°E)
Time: 03:41:33
(UTC+00:00)
Language:

Cosmos 1697 Rocket - Orbit

View from above orbital plane
View from above orbital plane
View from above satellite
View from above satellite

Ground track
Ground track

The orbit data is extracted from the following two-line orbital elements,

1 16182U 85097B   21015.61547797 -.00000248  00000-0 -10097-3 0  9998
2 16182  71.0019 135.1008 0009704 247.4821 123.4163 14.16255216821187
Epoch (UTC): 15 January 2021 14:46:17
Eccentricity: 0.0009704
inclination: 71.0019°
perigee height: 831 km
apogee height: 845 km
right ascension of ascending node: 135.1008°
argument of perigee: 247.4821°
revolutions per day: 14.16255216
mean anomaly at epoch: 123.4163°
orbit number at epoch: 82118

The dashed part of the orbit path shows where the satellite is in the earth's shadow,  

DLR